STARLINK-33750, 63513

Orbit data source: Space-Track

STARLINK-33750, 63513 is a payload satellite owned by SpaceX/Seattle (US) in LEO that was launched on Mon, 07 Apr 2025 UTC via an FALCON 9 launch vehicle from the Air Force Western Test Range (AFWTR). Payload-class satellites include a variety of spacecraft equipped with specific instruments for various scientific and technological missions. These include communications satellites like Starlink; space stations such as the ISS; scientific satellites like the Hubble; Earth observation satellites from companies like Planet Labs, Umbra, and HawkEye 360; GPS; miniature CubeSats for education and research; and military/defense satellites.

Loading next visibility...
Identifier
63513, 2025-071W
Orbit
LEO
Last TLE update
11 hours ago
Origin
Manufacturer
SpaceX/Seattle
Mission
Operational Commercial Communications
Bus & Motor
STARLINK V2MO, Unknown motor
Mass
575 kg wet, ~530 kg dry
Launch date (UTC)
2025-04-07 (3 months ago)
Launch vehicle
FALCON 9
Launch site
Air Force Western Test Range (AFWTR)
Object type
Payload
Rocket body
Debris
Shape & HBR
Box + 1 Pan, 29 m
Radar Cross Section
41.120 m², Large (>1 m²)

Expand to show TLE details & history

TLE from 11 hours ago
0 STARLINK-33750
1 63513U 25071W   25191.67598434  .00007145  00000-0  25310-3 0  9998
2 63513  53.1557 184.2190 0001122  76.2383 283.8742 15.30205465 15692
Epoch: 2025-07-10T16:13Z
TLE epoch observation values (Epoch: 2025-07-10T16:13:25.046Z)
Latitude
-0.00009°
Longitude
12.02572°
Altitude
475.914 km
Speed
7.629 km/s
True Right ascension
12h 16m 52s
True Declination
0° 00' 00"
Sunlit
Object was in daylight at epoch
Visualization orbit readout
Latitude
-53.29861°
Longitude
-78.55478°
Altitude
494.465 km
Speed
7.617 km/s
Apparent Right ascension
04h 31m 05s
Apparent Declination
-49° 09' 43"
Sunlit
Object is in daylight
Visualization observer readout
Local Sidereal Time
15:05:05
Azimuth
231.613° WSW
Elevation
-72.196°
Doppler factor
1
Orbital elements
Apogee altitude
476.225 km
Perigee altitude
474.687 km
Semi-major axis
6,853.593 km
Eccentricity
0.00011
Inclination
53.1557°
RAAN
184.219°
Arg. of periapsis
76.2383°
True anomaly
Unknown
Mean anomaly
283.8742°
Eccentric anomaly
Unknown
Mean motion
3.8253 °/min
Orbital period
94.11 mins
BSTAR
0.0002531
Loading maneuver chart data...
Loading SW <> Apogee altitude chart data...
Loading historical data...
Loading historical data...
Loading historical data...
Loading historical data...
Loading historical data...
Loading historical data...
Loading historical data...

STARLINK-33750 Visibility forecast

Observer location: undefined°, undefined°

Span
Click to sort rows by Start time (UTC) header in descending order
Start Az.
Max El. time (UTC)
Max El. Az.
Max El.
End time (UTC)
End Az.
5 mins2025-07-11 03:25:28.295Z272.786° WNW2025-07-11 03:28:28.295Z338.827° N25.489°2025-07-11 03:30:28.295Z22.772° NE
5 mins2025-07-11 08:23:28.295Z341.99° N2025-07-11 08:25:28.295Z46.076° ENE29.999°2025-07-11 08:28:28.295Z100.557° ESE
4 mins2025-07-11 10:01:28.295Z267.295° W2025-07-11 10:02:28.295Z243.104° WSW24.157°2025-07-11 10:05:28.295Z175.029° S
4 mins2025-07-12 01:19:28.295Z171.893° S2025-07-12 01:20:28.295Z143.063° SSE27.838°2025-07-12 01:23:28.295Z72.528° E
|